COSMOS 1975 (19573 NORAD) Tracking and Keplerian Element Data

This shows tracking and keplerian element data for the satellite.

Feedback or suggestion? Click here.




ElementValue
Catalog19573
NameCOSMOS 1975
Epoch Orbit92107
Epoch Day12.94279203
Epoch Year2024
RAAN177.2297
Inclination82.526
Eccentricity0.0016779
Argument of Perigee40.874
Mean Anonmoly319.3745
Mean Motion15.11772866
Decay Rate7.893E-05
L11 19573U 88093A 24012.94279203 .00007893 00000+0 45945-3 0 9994
L22 19573 82.5260 177.2297 0016779 40.8740 319.3745 15.11772866921073



Live tracking and technical data element details for COSMOS 1975 (NORAD 19573). COSMOS 1975 can be tracked NOW for your location showing map with azimuth and elevation plus other details from your city location.







IsCatalogInMostPopularTable: catalog: 19573, numindb: 370
Update: records affected: 1



GetName: 19573 COSMOS 1975

Hit Count: updated at: Sun, 14 Apr 2024 23:21:14 GMT